DM3DP Weather Reports


Display with metric or nautical units.
time (UTC)temp
F
wind
direction
speed
MPH
gust
MPH
rain 1hr
in
rain 24hr
in
rain mn
in
humidity
%
barometer
mb
20260506073022 53 195 1.0 2.0 0.01 0.43 0.00 99 1003.3
20260506072452 53 153 1.0 4.0 0.01 0.43 0.00 99 1003.2
20260506071921 53 197 2.0 4.0 0.01 0.43 0.00 99 1003.2
20260506071351 53 226 0.0 1.0 0.02 0.43 0.00 99 1003.2
20260506070822 53 223 2.0 5.0 0.02 0.43 0.00 99 1003.2
20260506070252 52 236 1.0 2.0 0.02 0.43 0.00 99 1003.2
20260506062421 52 120 0.0 3.0 0.02 0.43 0.00 99 1003.2
20260506061851 52 261 3.0 5.0 0.02 0.43 0.00 99 1003.2
20260506061321 52 189 0.0 1.0 0.01 0.43 0.00 99 1003.2
20260506060751 52 195 0.0 0.0 0.01 0.43 0.00 99 1003.2
20260506060222 52 187 0.0 2.0 0.01 0.43 0.00 99 1003.2
20260506051252 52 176 1.0 2.0 0.01 0.43 0.00 99 1003.2
20260506050721 52 165 1.0 1.0 0.01 0.43 0.00 99 1003.2
20260506050151 52 173 1.0 2.0 0.02 0.43 0.00 99 1003.2
20260506045051 51 194 0.0 0.0 0.02 0.43 0.00 99 1003.2
20260506044522 51 205 1.0 1.0 0.01 0.39 0.00 99 1003.2
20260506043951 51 205 0.0 0.0 0.01 0.39 0.00 99 1003.1
20260506043421 51 172 0.0 1.0 0.01 0.39 0.00 99 1003.1
20260506042851 51 205 1.0 1.0 0.02 0.39 0.00 99 1003.1
20260506042321 51 165 0.0 1.0 0.02 0.39 0.00 99 1003.1
20260506041751 52 165 1.0 3.0 0.02 0.39 0.00 99 1003.1
20260506041222 52 328 0.0 1.0 0.02 0.39 0.00 99 1003.1
20260506040651 52 312 1.0 3.0 0.02 0.39 0.00 99 1003.1
20260506040121 52 318 1.0 2.0 0.01 0.39 0.00 99 1003.1
20260506035551 52 216 2.0 6.0 0.02 0.39 0.00 99 1003.1
20260506035021 52 259 3.0 10.0 0.02 0.39 0.00 99 1003.1
20260506034451 52 84 1.0 2.0 0.02 0.39 0.00 99 1003.2
20260506033921 52 166 1.0 2.0 0.02 0.39 0.00 99 1003.2
20260506033351 52 173 1.0 2.0 0.01 0.39 0.00 99 1003.2
20260506032822 52 81 1.0 2.0 0.02 0.39 0.00 99 1003.2
20260506032251 52 171 2.0 3.0 0.02 0.39 0.00 99 1003.2
20260506031721 52 143 2.0 3.0 0.02 0.39 0.00 99 1003.3
20260506031151 52 171 2.0 4.0 0.02 0.39 0.00 99 1003.4
20260506030621 52 187 1.0 2.0 0.02 0.39 0.00 99 1003.5
20260506030051 52 167 1.0 2.0 0.02 0.39 0.00 99 1003.5
20260506025521 52 232 1.0 2.0 0.02 0.37 0.00 99 1003.7
20260506024951 52 165 1.0 2.0 0.02 0.37 0.00 99 1003.7
20260506024421 52 158 1.0 2.0 0.02 0.37 0.00 99 1003.7
20260506023851 52 171 1.0 2.0 0.02 0.37 0.00 99 1003.7
20260506023322 52 167 1.0 2.0 0.02 0.37 0.00 99 1003.7
20260506022751 52 169 1.0 2.0 0.02 0.36 0.00 99 1003.7
20260506022221 52 173 1.0 2.0 0.02 0.36 0.00 99 1003.7
20260506021651 52 169 0.0 1.0 0.02 0.36 0.00 99 1003.7
20260506021121 52 241 0.0 0.0 0.02 0.36 0.00 99 1003.7
20260506020551 52 160 1.0 3.0 0.02 0.36 0.00 99 1003.7
20260506015551 52 194 1.0 1.0 0.02 0.35 0.00 99 1003.8
20260506015021 52 205 0.0 0.0 0.02 0.35 0.00 99 1003.9
20260506014451 52 179 0.0 0.0 0.02 0.35 0.00 99 1003.9
20260506013921 52 177 1.0 1.0 0.02 0.35 0.00 99 1003.9
20260506013351 52 210 1.0 1.0 0.03 0.35 0.00 99 1003.9
20260506012821 52 167 1.0 2.0 0.02 0.35 0.00 99 1004.0
20260506012251 52 180 1.0 2.0 0.02 0.35 0.00 99 1004.0
20260506011721 52 175 0.0 1.0 0.02 0.35 0.00 99 1004.0
20260506011151 52 173 1.0 1.0 0.02 0.35 0.00 99 1004.0
20260506010621 52 206 1.0 1.0 0.03 0.35 0.00 99 1004.0
20260506010052 52 163 1.0 2.0 0.02 0.33 0.00 99 1004.0
20260506005521 52 254 1.0 2.0 0.02 0.33 0.00 99 1004.0
20260506004951 52 169 1.0 1.0 0.02 0.33 0.00 99 1004.1
20260506004421 52 166 2.0 3.0 0.03 0.33 0.00 99 1004.2
20260506003851 52 186 1.0 1.0 0.03 0.33 0.00 99 1004.3
20260506003322 52 173 1.0 1.0 0.02 0.32 0.00 99 1004.3
20260506002751 52 167 1.0 2.0 0.02 0.32 0.00 99 1004.3
20260506002222 52 176 1.0 1.0 0.03 0.32 0.00 99 1004.3
20260506001652 52 186 1.0 2.0 0.03 0.32 0.00 99 1004.4
20260506001121 52 175 2.0 2.0 0.02 0.31 0.00 99 1004.5
20260506000551 52 172 1.0 1.0 0.02 0.31 0.00 99 1004.6
20260506000021 53 171 1.0 1.0 0.03 0.31 0.00 99 1004.6
20260505235451 53 167 0.0 1.0 0.03 0.31 0.00 99 1004.6
20260505234922 53 171 1.0 2.0 0.03 0.31 0.00 99 1004.6
20260505234351 53 165 1.0 2.0 0.03 0.31 0.00 99 1004.6
20260505233821 53 175 0.0 2.0 0.03 0.31 0.00 99 1004.6
20260505233251 53 169 1.0 1.0 0.03 0.31 0.00 99 1004.6
20260505232721 53 163 1.0 2.0 0.03 0.31 0.00 99 1004.7
20260505232151 53 191 1.0 2.0 0.03 0.30 0.00 99 1004.7
20260505231621 53 147 1.0 3.0 0.03 0.30 0.00 99 1004.8
20260505231052 53 173 1.0 2.0 0.03 0.30 0.00 99 1004.8
20260505230521 53 182 1.0 2.0 0.04 0.30 0.00 99 1004.8
20260505225951 53 185 1.0 2.0 0.03 0.28 0.00 99 1004.9
20260505225421 53 200 1.0 2.0 0.03 0.28 0.00 99 1004.9
20260505224852 53 182 1.0 2.0 0.04 0.28 0.00 99 1004.9
20260505224321 53 169 1.0 2.0 0.03 0.28 0.00 99 1004.9
20260505223751 53 172 2.0 3.0 0.03 0.28 0.00 99 1004.9
20260505223221 53 205 2.0 4.0 0.04 0.28 0.00 99 1004.9
20260505222651 53 171 2.0 3.0 0.04 0.28 0.00 99 1004.9
20260505222121 53 169 2.0 3.0 0.03 0.27 0.00 99 1005.0
20260505221551 53 209 1.0 2.0 0.04 0.27 0.00 99 1004.9
20260505221021 53 177 1.0 2.0 0.04 0.27 0.00 99 1005.0
20260505220451 53 181 2.0 3.0 0.03 0.26 0.00 99 1005.1
20260505215921 53 192 2.0 3.0 0.04 0.26 0.00 99 1005.1
20260505215351 53 186 1.0 2.0 0.04 0.26 0.00 99 1005.1
20260505214821 53 169 1.0 2.0 0.04 0.24 0.00 99 1005.1
20260505214251 54 177 1.0 4.0 0.04 0.24 0.00 99 1005.2
20260505213721 54 206 2.0 3.0 0.05 0.24 0.00 99 1005.3
20260505213151 54 177 2.0 3.0 0.04 0.24 0.00 99 1005.3
20260505212621 54 185 1.0 2.0 0.04 0.24 0.00 99 1005.3
20260505212051 54 168 1.0 2.0 0.05 0.24 0.00 99 1005.3
20260505211521 54 182 1.0 4.0 0.04 0.23 0.00 99 1005.3
20260505210951 54 181 2.0 4.0 0.05 0.23 0.00 99 1005.3
20260505210421 54 175 2.0 7.0 0.04 0.22 0.00 99 1005.3
20260505205851 54 178 1.0 3.0 0.05 0.22 0.00 99 1005.3
20260505205321 54 11 2.0 2.0 0.05 0.22 0.00 99 1005.3
20260505204751 54 331 2.0 2.0 0.04 0.20 0.00 99 1005.3
20260505204221 54 207 1.0 2.0 0.05 0.20 0.00 99 1005.3
20260505203651 54 180 2.0 5.0 0.04 0.20 0.00 99 1005.3
20260505203121 55 253 2.0 6.0 0.05 0.20 0.00 99 1005.3
20260505202551 55 268 3.0 5.0 0.05 0.20 0.00 99 1005.3
20260505202021 55 150 2.0 6.0 0.05 0.19 0.00 99 1005.3
20260505201451 55 197 3.0 9.0 0.05 0.19 0.00 99 1005.1
20260505200921 55 169 3.0 5.0 0.05 0.18 0.00 99 1005.1
20260505200351 55 180 4.0 8.0 0.05 0.18 0.00 99 1005.1
20260505195822 55 184 2.0 4.0 0.05 0.17 0.00 99 1005.1
20260505195251 55 258 3.0 6.0 0.05 0.17 0.00 99 1005.1
20260505194721 55 301 3.0 7.0 0.06 0.17 0.00 99 1005.1
20260505194151 55 183 3.0 4.0 0.05 0.16 0.00 99 1005.1
20260505193621 55 173 2.0 6.0 0.06 0.16 0.00 99 1005.1
20260505193052 55 192 3.0 7.0 0.06 0.16 0.00 99 1005.1
20260505192521 56 310 1.0 2.0 0.06 0.16 0.00 99 1005.0
20260505191951 56 174 1.0 2.0 0.06 0.15 0.00 99 1005.0
20260505191421 56 169 2.0 3.0 0.06 0.14 0.00 99 1005.0
20260505190851 56 273 2.0 5.0 0.06 0.14 0.00 99 1005.0
20260505190321 56 188 2.0 4.0 0.07 0.14 0.00 99 1005.0
20260505185751 56 244 1.0 2.0 0.07 0.13 0.00 99 1005.0
20260505185221 56 296 1.0 1.0 0.08 0.13 0.00 99 1005.0
20260505184652 56 182 2.0 2.0 0.07 0.12 0.00 99 1005.0
20260505184121 56 76 2.0 4.0 0.07 0.11 0.00 99 1005.0
20260505183551 56 178 2.0 3.0 0.07 0.11 0.00 99 1005.0
20260505183021 56 358 2.0 4.0 0.07 0.10 0.00 99 1005.1
20260505182451 56 348 3.0 7.0 0.07 0.10 0.00 99 1005.1
20260505181921 56 183 2.0 6.0 0.07 0.09 0.00 99 1005.1
20260505181351 57 151 5.0 15.0 0.06 0.08 0.00 99 1005.1
20260505180821 57 298 2.0 6.0 0.06 0.08 0.00 99 1005.1
20260505180251 57 191 1.0 4.0 0.05 0.07 0.00 99 1005.1
20260505175721 57 111 3.0 8.0 0.05 0.06 0.00 99 1005.1
20260505175152 57 324 2.0 7.0 0.04 0.05 0.00 99 1005.1
20260505174621 57 305 2.0 6.0 0.04 0.05 0.00 99 1005.1
20260505174051 58 147 3.0 5.0 0.03 0.04 0.00 99 1005.1
20260505173521 58 290 2.0 4.0 0.03 0.04 0.00 99 1005.1
20260505172951 58 290 4.0 9.0 0.02 0.03 0.00 99 1005.0
20260505172422 58 321 4.0 8.0 0.02 0.03 0.00 99 1005.0
20260505171852 59 288 3.0 7.0 0.01 0.02 0.00 99 1005.0
20260505171321 59 284 7.0 11.0 0.01 0.02 0.00 99 1005.0
20260505170751 59 319 4.0 7.0 0.01 0.02 0.00 99 1005.0
20260505170221 59 157 3.0 5.0 0.00 0.01 0.00 99 1005.0
20260505165651 60 119 3.0 7.0 0.00 0.01 0.00 99 1005.0
20260505165121 60 182 3.0 5.0 0.00 0.02 0.00 99 1005.0
20260505164551 60 326 4.0 10.0 0.00 0.02 0.00 99 1005.0
20260505164022 60 287 8.0 15.0 0.00 0.02 0.00 99 1005.1
20260505163451 60 315 6.0 9.0 0.00 0.02 0.00 99 1005.1
20260505162921 60 331 2.0 5.0 0.00 0.02 0.00 99 1005.1
20260505162351 60 331 9.0 18.0 0.00 0.02 0.00 99 1005.1
20260505161822 61 189 4.0 7.0 0.00 0.02 0.00 99 1005.1
20260505161251 61 202 4.0 11.0 0.00 0.02 0.00 99 1005.1
20260505160722 61 205 8.0 15.0 0.00 0.02 0.00 99 1005.1
20260505160151 61 201 6.0 16.0 0.00 0.03 0.00 99 1005.1
20260505152851 62 187 2.0 3.0 0.00 0.05 0.00 99 1005.2
20260505152321 62 46 2.0 7.0 0.00 0.06 0.00 99 1005.3
20260505151751 62 211 2.0 6.0 0.00 0.07 0.00 99 1005.3
20260505151222 62 180 8.0 16.0 0.00 0.09 0.00 99 1005.3
20260505150651 62 218 6.0 9.0 0.00 0.10 0.00 99 1005.3
20260505150122 62 196 4.0 11.0 0.00 0.12 0.00 99 1005.3
20260505140621 64 318 4.0 8.0 0.00 0.19 0.00 99 1005.6
20260505124921 63 176 3.0 7.0 0.00 0.20 0.00 99 1006.4
20260505124351 63 253 2.0 7.0 0.00 0.20 0.00 99 1006.4
20260505123821 62 181 4.0 7.0 0.00 0.20 0.00 99 1006.4
20260505123251 62 338 3.0 6.0 0.00 0.20 0.00 99 1006.5
20260505122721 62 177 4.0 10.0 0.00 0.20 0.00 99 1006.5
20260505122151 62 314 2.0 6.0 0.00 0.20 0.00 99 1006.5
20260505121621 62 350 2.0 3.0 0.00 0.20 0.00 99 1006.5
20260505121051 62 196 3.0 7.0 0.00 0.20 0.00 99 1006.5
20260505120521 61 207 3.0 7.0 0.00 0.20 0.00 99 1006.6
20260505115952 61 187 2.0 8.0 0.00 0.20 0.00 99 1006.6
20260505115421 61 202 2.0 3.0 0.00 0.20 0.00 99 1006.7
20260505114851 61 205 1.0 3.0 0.00 0.20 0.00 99 1006.7
20260505114322 61 331 1.0 1.0 0.00 0.20 0.00 99 1006.7
20260505113751 61 205 1.0 2.0 0.00 0.20 0.00 99 1006.7
20260505113221 61 234 0.0 1.0 0.00 0.20 0.00 99 1006.7
20260505112651 61 332 1.0 2.0 0.00 0.20 0.00 99 1006.7
20260505112121 61 226 0.0 1.0 0.00 0.20 0.00 99 1006.7
20260505111551 61 220 0.0 0.0 0.00 0.20 0.00 99 1006.7
20260505111021 61 322 1.0 4.0 0.00 0.20 0.00 99 1006.8
20260505110451 61 287 0.0 1.0 0.00 0.20 0.00 99 1006.9
20260505102051 61 250 0.0 0.0 0.00 0.20 0.00 99 1007.0
20260505101521 61 171 1.0 2.0 0.00 0.20 0.00 99 1007.1
20260505100951 61 315 2.0 4.0 0.00 0.20 0.00 99 1007.2
20260505100422 61 278 1.0 1.0 0.00 0.20 0.00 99 1007.2
20260505095851 61 205 1.0 3.0 0.00 0.20 0.00 99 1007.2
20260505095322 61 171 2.0 3.0 0.00 0.20 0.00 99 1007.2
20260505094752 61 187 1.0 6.0 0.00 0.20 0.00 99 1007.3
20260505094222 60 182 1.0 3.0 0.00 0.20 0.00 99 1007.3
20260505093651 60 197 1.0 3.0 0.00 0.20 0.00 99 1007.3
20260505093121 60 301 2.0 4.0 0.00 0.20 0.00 99 1007.4
20260505092551 60 231 2.0 3.0 0.00 0.20 0.00 99 1007.4
20260505092021 59 336 1.0 4.0 0.00 0.20 0.00 99 1007.5
20260505091451 59 306 0.0 0.0 0.00 0.20 0.00 99 1007.5
20260505090922 59 272 0.0 0.0 0.00 0.20 0.00 99 1007.5
20260505090351 59 334 3.0 4.0 0.00 0.20 0.00 99 1007.5
20260505085821 59 334 1.0 1.0 0.00 0.20 0.00 99 1007.5
20260505085251 59 337 0.0 0.0 0.00 0.20 0.00 99 1007.5
20260505084721 59 338 0.0 1.0 0.00 0.20 0.00 99 1007.5
20260505084151 59 293 1.0 1.0 0.00 0.20 0.00 99 1007.5
20260505083621 59 334 2.0 4.0 0.00 0.20 0.00 99 1007.5
20260505083051 59 327 1.0 3.0 0.00 0.20 0.00 99 1007.5
20260505082522 59 336 0.0 0.0 0.00 0.20 0.00 99 1007.6
20260505081951 59 285 1.0 3.0 0.00 0.20 0.00 99 1007.6
20260505081421 59 272 0.0 0.0 0.00 0.20 0.00 99 1007.6
20260505080851 59 272 4.0 6.0 0.00 0.20 0.00 99 1007.6
20260505080321 58 274 0.0 0.0 0.00 0.20 0.00 99 1007.6
20260505075751 58 210 0.0 0.0 0.00 0.20 0.00 99 1007.6